Wind_Speed
22 25 27 29 30 30 29 29 30 32 34 35 36 37 39 41 42 43 43 41 40 39 38 38 38 38 38 40 41 42 43 44 44 45 46 47 48 48 48 48 49 51 50 47 51 59 58 53 56 62 65 64 63 65 69 70 71 74 76 77 76 74 73
17 19 22 26 28 29 29 29 29 31 32 34 36 37 39 40 41 42 41 40 39 38 37 37 36 35 36 36 38 38 39 40 41 43 45 46 48 49 48 48 46 46 49 48 46 53 60 55 50 53 60 64 64 63 65 70 72 74 77 79 79 78 76
13 14 16 19 23 26 27 27 28 29 31 33 35 37 39 40 41 41 40 39 38 37 37 38 37 35 35 35 36 36 36 38 39 40 42 44 46 48 48 48 47 44 46 47 43 46 56 59 53 47 49 58 64 64 62 65 70 73 76 80 82 80 78
9 9 10 13 16 20 23 24 24 26 28 31 34 36 37 39 39 39 37 36 36 37 39 39 38 37 36 35 35 36 36 38 39 39 40 41 42 44 47 48 46 43 44 46 43 42 49 58 59 52 45 47 56 63 63 61 63 68 72 76 80 81 80
8 5 4 6 9 13 16 19 21 23 26 28 31 33 34 35 36 36 35 34 35 38 39 39 39 37 36 35 35 35 36 37 36 35 36 38 39 41 43 44 42 40 41 43 42 41 44 50 57 59 53 45 45 53 59 61 61 62 64 67 72 79 82
13 10 6 2 2 6 10 14 17 19 22 25 27 30 31 33 33 33 33 33 34 36 38 38 38 37 36 35 34 34 35 34 32 31 32 34 36 38 39 39 38 36 37 39 39 39 40 43 49 57 60 54 46 44 47 52 57 60 61 61 63 71 78
19 16 13 9 5 1 4 8 12 15 18 21 23 26 28 29 30 30 30 31 32 34 35 36 36 36 35 34 33 32 32 32 30 29 29 30 31 33 35 36 36 33 33 35 36 37 38 40 42 48 55 59 55 49 44 43 47 54 59 61 59 62 70
22 20 18 15 10 6 1 4 7 10 14 17 19 22 23 25 27 29 30 30 31 32 33 34 35 34 33 32 32 29 29 31 31 28 28 29 30 32 34 35 34 31 30 32 35 34 34 36 37 40 47 55 58 56 51 43 40 43 50 56 58 57 60
22 22 21 19 16 12 7 3 2 5 8 12 15 17 19 21 24 27 28 29 30 32 33 34 33 32 31 30 30 28 27 30 32 29 28 31 32 32 33 33 32 30 30 33 36 34 32 33 34 36 41 50 56 58 55 48 43 41 41 46 52 55 54
21 21 20 19 18 16 13 10 5 2 3 7 9 12 14 16 19 22 25 26 28 30 31 31 31 31 30 29 28 28 28 30 32 30 29 30 31 31 31 31 31 31 31 34 35 33 30 30 32 32 35 43 49 53 55 54 52 47 42 40 43 48 51
21 20 18 17 16 15 15 13 10 6 3 4 6 9 11 13 15 18 20 22 24 26 28 29 30 30 29 28 28 28 28 29 30 30 30 29 30 31 31 31 31 30 30 32 31 29 27 29 29 28 28 33 38 43 48 52 54 52 50 46 42 42 44
22 21 19 17 15 14 12 12 12 10 7 5 4 6 8 10 13 15 18 21 22 24 25 26 28 29 29 28 28 30 30 29 29 29 29 30 30 31 32 32 31 31 31 30 29 27 27 28 27 26 24 25 29 34 39 44 48 51 52 52 49 45 43
20 20 18 17 15 14 11 9 9 9 7 6 3 1 3 5 7 10 14 18 22 24 25 25 26 28 30 29 30 32 30 28 29 29 29 30 30 30 30 31 32 33 34 33 31 30 30 28 27 26 24 22 23 27 31 36 40 44 47 50 51 50 48
21 20 18 15 13 13 12 9 6 4 4 4 2 0 1 1 1 4 7 11 17 22 25 26 26 28 31 31 31 33 30 28 29 29 29 29 29 29 29 30 31 33 34 34 33 33 32 30 28 28 26 23 23 25 27 30 34 38 41 44 46 47 49
24 21 18 16 13 11 11 11 8 4 3 3 4 3 2 1 1 3 5 7 12 17 21 24 25 28 32 33 33 34 32 30 29 29 28 28 28 28 28 29 30 31 32 34 34 34 34 32 30 29 28 27 26 25 25 27 30 33 36 39 41 42 45
27 24 20 16 13 10 10 12 12 9 6 6 8 7 5 4 3 5 8 9 9 12 16 21 23 26 32 35 34 33 32 31 31 29 28 28 27 26 27 27 27 28 30 32 34 34 34 33 31 31 31 30 29 27 27 27 28 30 33 36 39 41 43
28 27 22 18 14 11 9 11 14 14 12 10 10 9 8 8 7 6 9 11 9 9 13 17 20 22 29 34 34 31 31 31 32 30 28 28 27 25 25 24 24 25 27 30 33 34 33 32 32 32 32 32 31 30 29 30 30 31 32 35 38 40 42
28 27 24 19 16 13 9 9 13 16 16 14 13 12 12 11 8 5 8 10 7 5 8 14 17 18 24 31 32 30 30 31 32 31 29 28 27 26 25 24 23 24 25 27 31 32 31 31 31 33 34 34 33 32 32 32 32 30 30 32 35 37 38
28 25 22 19 18 16 12 8 9 13 16 16 16 16 15 13 10 9 10 9 6 3 4 8 14 17 21 26 29 29 30 31 31 32 30 28 28 28 26 24 23 23 24 25 28 31 31 30 30 31 33 34 34 33 32 33 32 31 30 31 32 35 37
28 25 21 19 19 19 17 12 8 10 14 16 17 18 16 14 13 14 13 10 6 3 3 5 9 15 19 24 27 28 29 30 31 32 31 30 30 29 25 22 22 22 21 22 24 27 29 30 31 32 33 34 33 32 32 32 33 33 32 31 32 34 35
27 23 19 19 19 20 21 18 12 9 11 13 15 16 16 14 13 14 14 11 8 6 5 5 6 9 14 20 25 28 29 31 32 33 32 31 30 27 23 21 20 20 20 20 21 23 26 29 32 33 33 33 32 32 32 33 33 34 34 33 32 32 32
24 19 17 17 18 19 20 19 15 10 8 11 13 14 14 13 13 13 13 11 10 8 7 8 8 8 10 14 18 22 26 28 30 31 31 30 26 23 20 20 20 20 20 21 22 24 26 27 30 33 33 32 31 30 31 32 33 34 34 33 32 31 31
19 16 15 15 15 15 16 14 12 8 6 8 11 12 12 12 13 14 13 11 11 10 9 9 10 11 12 13 15 16 19 21 23 25 26 24 22 20 20 21 21 21 22 23 23 26 26 26 28 31 32 31 30 30 30 31 32 33 32 31 31 30 30
17 14 14 14 13 14 17 15 12 9 5 4 7 9 10 10 12 14 14 13 13 12 12 12 12 13 14 16 17 18 19 20 21 23 23 23 23 24 24 24 24 25 25 26 25 26 26 26 27 30 31 31 31 30 30 30 31 31 30 30 31 30 30
16 15 14 13 13 14 16 16 15 12 8 4 3 5 6 7 10 13 15 16 15 14 14 14 14 15 16 17 18 20 22 23 24 25 26 27 28 28 27 26 27 28 28 28 27 26 25 25 26 28 29 30 31 30 29 29 30 31 32 32 32 32 32
17 17 15 13 12 12 13 14 14 13 10 7 3 2 4 5 8 11 14 16 16 16 16 16 16 17 18 19 20 21 23 24 26 27 28 29 29 30 29 27 27 29 29 28 27 26 25 25 25 26 28 29 28 28 28 28 28 30 33 34 34 33 34
18 17 16 14 13 13 12 12 11 10 9 8 6 2 2 4 7 9 12 14 15 16 16 17 18 19 20 21 22 23 24 25 26 28 29 29 30 31 30 29 28 29 28 28 27 25 24 24 24 25 26 26 26 26 26 26 27 28 30 31 32 32 32
19 18 17 16 15 15 14 12 11 9 8 7 6 5 3 4 5 7 9 11 12 13 14 15 16 18 19 20 21 22 24 25 27 28 29 31 32 33 33 32 32 31 30 28 27 26 26 26 24 23 23 24 24 24 24 24 25 26 27 27 27 28 28
20 19 18 16 15 16 16 14 13 12 11 10 9 7 6 6 6 7 8 9 10 11 12 13 14 16 17 18 18 19 21 22 24 26 27 29 31 33 34 34 35 35 33 29 28 29 28 26 24 22 21 22 23 24 24 24 24 24 24 25 25 24 24
22 20 18 16 14 15 16 17 16 14 13 12 10 9 8 8 7 8 8 9 10 10 11 13 15 16 16 15 15 15 17 18 20 22 23 24 25 27 29 30 32 35 35 31 30 31 30 27 24 21 21 21 22 22 23 24 23 23 23 23 23 23 23
22 20 18 16 14 14 14 16 17 16 14 12 11 9 8 8 7 7 7 8 9 10 11 13 14 15 15 14 13 13 14 15 17 18 19 20 20 21 23 25 28 32 35 34 32 31 30 28 24 21 19 19 18 19 21 23 23 24 24 23 22 21 21
21 20 18 17 15 14 13 15 17 17 15 13 11 10 9 8 8 7 6 7 8 9 10 12 13 14 14 13 13 13 13 14 14 16 17 18 19 19 21 22 24 28 32 34 32 31 30 28 25 23 21 19 17 16 17 19 19 21 22 22 21 21 21
22 20 18 17 15 15 15 15 17 18 16 13 11 10 9 8 8 7 7 8 8 9 11 12 12 12 12 12 11 11 11 11 11 12 14 16 17 18 20 21 22 24 29 32 32 31 30 29 27 26 25 22 20 18 18 18 19 19 20 20 21 21 21
22 21 19 17 15 15 16 16 17 17 16 14 11 10 10 9 8 8 8 9 9 10 11 11 11 11 11 10 8 7 7 6 7 8 9 11 13 14 16 18 20 21 25 29 31 31 30 30 30 28 27 25 24 23 23 23 24 23 21 20 20 21 21
22 20 18 17 15 14 15 16 16 16 15 12 10 10 10 10 9 8 8 9 10 10 11 10 10 10 10 8 6 5 5 5 6 7 7 9 10 11 13 15 18 19 22 25 29 31 32 32 31 30 28 27 26 26 26 27 27 26 23 23 24 25 26
22 21 19 16 14 12 12 13 13 14 13 10 8 9 10 10 10 9 8 9 9 10 10 9 9 8 8 7 5 4 4 5 6 6 7 8 9 10 11 13 16 18 20 22 25 29 32 33 33 32 31 31 30 29 28 28 28 28 28 27 27 29 30
Wind_Direction
273 266 260 254 251 247 242 236 232 230 230 231 231 232 234 236 239 241 242 243 243 242 242 241 241 242 242 243 244 244 243 243 244 244 242 241 241 240 239 239 241 242 243 244 240 233 228 229 232 232 228 225 225 225 224 225 226 226 226 227 227 226 225
276 266 260 254 250 246 243 239 236 234 233 233 233 234 235 236 238 241 242 243 241 240 239 239 239 238 238 239 241 242 243 242 243 244 243 241 240 240 240 240 241 242 241 240 240 237 232 229 228 230 229 227 225 225 224 225 225 225 224 225 226 226 225
285 269 259 252 248 245 243 241 239 237 236 235 234 234 235 236 237 239 242 242 241 239 239 239 239 238 237 237 239 241 242 242 243 245 244 241 240 239 240 241 242 243 242 239 238 238 236 232 230 227 227 227 226 226 225 224 224 225 224 223 222 224 225
311 284 261 248 243 241 241 241 239 238 237 236 236 235 235 237 238 241 243 243 241 239 238 239 240 240 241 243 243 243 242 243 244 245 244 239 236 236 238 240 242 242 242 240 239 240 238 235 233 231 227 225 225 226 228 226 223 223 225 223 220 221 224
5 346 294 250 237 235 237 238 239 238 237 236 236 236 235 237 239 242 244 243 242 240 240 241 242 243 245 246 245 242 240 241 242 241 238 234 232 233 235 238 240 241 241 240 240 243 242 237 235 235 232 228 223 223 225 228 226 224 225 225 222 220 221
38 39 35 33 230 234 237 240 242 241 240 239 237 236 236 237 239 241 242 242 240 240 240 241 242 243 244 243 242 239 238 239 238 234 231 230 232 233 234 236 239 240 241 240 239 241 244 241 237 236 235 233 229 224 222 224 227 226 226 227 226 221 220
45 49 50 53 55 11 244 245 246 244 243 241 239 239 238 239 239 239 238 238 238 238 238 239 240 241 240 239 237 236 237 236 229 224 225 228 232 235 235 238 240 241 241 242 239 237 242 244 239 237 237 236 234 233 227 222 223 225 226 227 228 226 222
45 48 50 53 52 47 5 257 251 248 246 245 243 242 241 241 241 237 234 233 235 236 237 238 239 239 237 236 235 235 237 232 222 218 224 228 230 234 238 240 239 237 238 243 244 241 242 244 241 237 237 237 237 237 234 227 222 222 224 225 226 228 226
43 44 47 49 49 48 43 25 286 255 249 246 245 243 242 242 241 238 234 233 234 236 238 238 237 236 234 234 233 234 233 224 215 216 227 231 232 235 239 239 235 233 235 240 244 244 243 244 241 237 237 238 238 239 238 235 231 225 222 223 224 225 226
36 38 41 44 45 45 40 36 27 335 258 244 243 243 241 240 241 241 238 237 237 238 239 238 235 234 232 230 229 227 222 215 211 216 226 230 233 235 236 235 232 232 235 239 242 243 242 244 244 240 238 239 239 239 240 240 239 235 229 226 224 223 222
26 27 28 31 36 38 35 31 26 16 338 272 249 243 243 240 239 241 241 241 242 242 242 240 236 233 230 226 224 217 211 211 214 220 226 230 233 234 234 232 231 232 236 240 242 242 241 243 245 242 239 239 238 238 239 241 241 240 238 235 231 227 223
15 15 14 13 15 21 26 27 23 20 9 335 282 250 246 243 241 242 242 243 244 245 247 245 240 234 228 221 216 212 211 215 220 223 226 229 233 235 232 229 227 229 235 238 239 239 239 240 243 241 236 235 237 238 238 239 240 241 242 241 239 236 233
4 1 360 359 357 357 5 17 19 18 15 1 339 271 236 237 244 249 248 247 246 245 247 247 243 235 225 217 211 210 213 218 220 223 226 229 232 233 231 228 225 227 233 236 237 237 237 237 240 242 237 232 235 237 235 235 237 238 240 242 243 242 241
356 351 346 344 343 337 338 348 357 5 8 358 345 128 142 164 223 257 260 256 250 247 245 245 244 235 224 216 210 208 212 217 220 223 227 229 231 231 231 231 228 228 230 233 235 236 237 236 239 243 242 235 232 233 232 231 232 233 235 238 240 242 242
356 351 343 336 331 322 315 316 317 308 299 293 277 266 252 237 338 316 293 274 259 251 245 242 242 234 223 217 212 208 210 216 221 225 227 229 231 231 232 232 231 231 231 232 235 237 238 239 240 243 245 241 236 234 233 232 230 230 230 230 232 234 237
354 351 346 338 328 316 298 292 291 283 267 261 264 270 271 269 305 332 313 293 274 259 247 240 237 232 223 217 213 210 211 216 221 224 227 229 230 230 231 231 231 232 232 233 235 236 237 238 239 241 242 242 241 239 237 235 233 230 227 226 226 227 230
353 348 345 342 335 325 301 279 276 274 269 263 259 261 267 269 280 310 306 294 284 269 253 241 234 229 222 217 214 212 214 218 221 223 226 228 228 228 230 232 234 235 236 236 235 235 236 237 238 239 240 241 242 241 238 237 236 234 232 230 229 229 228
351 346 343 341 338 334 319 287 274 271 269 268 263 258 258 259 259 267 280 283 283 281 262 242 230 223 218 215 213 212 214 217 219 222 225 227 227 229 233 236 240 243 243 239 235 233 235 236 237 238 239 240 240 239 238 237 237 236 236 235 234 233 232
347 345 341 339 336 331 326 308 282 272 267 264 261 260 259 255 246 244 256 267 274 294 285 246 226 216 211 210 210 211 213 216 219 222 225 227 230 234 238 242 246 248 246 241 234 231 232 234 235 237 238 239 238 237 236 236 234 233 234 236 237 237 237
345 345 342 340 336 331 329 327 308 279 268 262 258 257 259 256 249 251 259 268 270 263 279 263 232 217 210 207 208 212 214 216 220 225 227 229 233 238 242 246 248 246 242 237 234 233 232 233 234 234 236 237 236 235 234 234 233 230 230 234 240 241 240
343 345 344 340 335 330 330 331 325 297 270 263 258 255 255 253 249 252 260 269 271 257 245 251 243 225 217 213 212 214 217 219 223 227 230 233 238 242 244 245 242 238 235 234 235 237 235 233 232 232 232 234 234 233 232 232 232 230 229 233 240 243 242
342 344 344 340 335 334 334 332 327 313 278 264 261 255 252 248 244 246 252 257 264 263 247 236 232 226 225 222 218 219 222 224 228 231 235 238 239 239 238 237 236 235 236 237 238 240 240 236 233 232 232 233 233 232 233 233 233 231 231 233 237 238 239
341 344 343 341 341 348 354 351 342 334 301 265 261 258 253 245 238 240 243 245 250 255 253 245 235 227 223 224 225 226 227 228 230 233 235 236 235 233 233 236 238 238 240 242 242 243 243 240 236 234 234 235 235 234 233 235 235 233 232 233 234 234 235
345 344 346 349 354 1 10 16 15 8 348 278 261 260 257 246 236 235 239 242 245 248 250 250 245 238 231 226 225 227 227 228 228 228 229 230 232 235 238 241 242 240 241 244 246 245 245 242 240 237 235 235 236 235 234 234 234 231 230 230 231 232 232
352 349 352 358 4 8 14 19 22 22 16 351 282 263 262 249 235 232 236 241 246 247 247 247 245 244 241 237 234 231 229 229 229 229 230 230 232 234 237 238 240 240 241 243 244 244 245 245 243 241 238 236 235 235 235 234 231 228 227 228 228 229 230
357 353 354 358 3 9 17 19 17 18 22 21 7 286 259 245 232 230 233 238 244 247 248 247 246 245 244 243 241 239 236 234 233 233 234 234 234 235 235 235 238 240 241 241 241 240 242 245 245 243 240 237 238 238 236 233 229 227 227 228 229 230 231
357 353 353 356 358 2 12 16 8 6 14 18 13 351 273 248 237 234 235 239 243 247 249 251 251 250 249 248 246 245 243 241 239 237 237 236 236 236 235 234 238 242 242 242 241 241 243 244 245 244 242 239 238 239 238 233 228 226 227 229 231 232 233
357 354 350 351 352 351 356 0 354 352 358 358 351 341 313 281 260 250 247 247 249 251 253 256 257 256 256 255 254 252 250 247 245 242 240 239 238 239 239 238 239 242 243 241 239 240 243 244 244 246 245 239 236 237 238 236 231 228 227 228 230 231 231
355 354 349 345 342 339 341 345 344 343 344 340 333 322 309 296 284 277 273 268 266 266 266 267 269 268 267 265 261 257 253 251 249 246 244 241 240 240 240 240 238 239 241 239 234 233 239 243 246 246 243 237 234 235 236 235 232 229 227 226 226 228 229
350 350 346 339 332 330 331 333 333 331 330 328 325 318 307 296 284 279 279 277 276 275 275 275 276 277 276 272 266 259 252 246 245 244 244 242 239 237 236 235 234 234 237 237 232 228 232 238 243 245 240 235 233 234 234 232 229 225 224 226 227 230 232
346 343 339 333 325 319 317 315 315 317 320 321 323 320 308 292 278 275 277 279 281 282 282 282 283 283 283 280 275 269 259 249 243 240 238 238 237 236 234 232 229 229 232 234 231 227 228 233 237 237 234 230 229 230 231 230 227 223 223 226 229 232 235
343 338 333 327 319 312 303 297 299 306 313 317 320 319 307 286 275 277 285 291 297 299 297 293 290 289 289 287 283 276 267 259 250 241 234 231 231 233 235 233 230 227 227 230 230 226 225 228 230 229 227 224 221 220 222 225 226 225 225 226 229 235 240
340 337 330 323 315 307 299 294 294 299 304 309 313 313 303 288 277 276 284 295 304 309 308 301 294 293 292 291 288 279 268 262 253 242 235 229 227 229 232 233 232 228 225 227 228 225 224 225 225 226 227 224 220 219 222 223 222 222 225 228 230 236 241
336 335 329 320 311 301 293 289 288 291 296 302 306 303 297 292 283 276 281 291 300 307 308 302 297 297 297 294 287 270 253 246 240 235 232 229 227 228 229 229 230 229 225 224 225 225 225 225 226 226 227 225 224 228 232 231 224 220 223 229 233 238 243
332 332 328 320 308 294 284 281 281 282 286 294 302 301 297 293 287 280 281 288 296 302 304 301 299 301 300 297 286 262 242 237 234 231 226 223 224 227 227 226 227 226 223 223 224 225 226 226 226 226 226 226 226 229 234 236 232 225 224 228 231 236 243
331 332 330 323 313 299 285 280 280 282 284 289 298 301 296 290 286 283 280 283 292 299 299 297 298 299 298 297 293 277 259 253 249 239 228 222 222 224 225 225 224 223 221 221 222 225 227 229 230 230 231 231 230 230 231 233 231 227 228 233 235 236 239
Height
2828 2829 2830 2831 2833 2835 2837 2840 2843 2846 2848 2850 2853 2855 2856 2858 2860 2861 2863 2866 2868 2870 2871 2873 2874 2876 2878 2880 2881 2883 2886 2888 2891 2893 2896 2898 2899 2901 2904 2906 2906 2906 2908 2912 2915 2919 2924 2927 2930 2933 2938 2943 2948 2953 2957 2962 2967 2972 2975 2978 2982 2987 2991
2825 2825 2826 2827 2829 2831 2834 2836 2839 2841 2843 2845 2847 2849 2851 2853 2855 2856 2858 2860 2863 2865 2867 2868 2870 2872 2874 2875 2877 2879 2881 2883 2886 2888 2890 2892 2894 2896 2898 2900 2902 2903 2903 2906 2910 2913 2917 2921 2924 2926 2931 2936 2940 2945 2950 2954 2959 2963 2966 2970 2975 2978 2983
2822 2822 2822 2824 2825 2828 2830 2832 2835 2837 2838 2840 2842 2844 2846 2848 2850 2851 2853 2855 2858 2860 2862 2863 2865 2867 2869 2871 2873 2875 2877 2879 2881 2883 2884 2887 2889 2891 2893 2895 2897 2899 2899 2901 2905 2907 2910 2914 2917 2920 2925 2929 2933 2937 2941 2945 2950 2954 2958 2961 2966 2970 2975
2821 2820 2820 2821 2823 2825 2827 2829 2831 2833 2834 2836 2838 2839 2842 2843 2845 2847 2849 2851 2854 2856 2857 2859 2861 2863 2865 2867 2869 2871 2873 2874 2876 2878 2879 2882 2884 2886 2888 2890 2892 2894 2895 2897 2900 2901 2904 2908 2911 2915 2918 2922 2925 2929 2933 2937 2941 2945 2949 2953 2957 2962 2967
2821 2820 2820 2820 2821 2823 2825 2826 2828 2830 2831 2833 2834 2836 2838 2840 2842 2844 2846 2848 2850 2851 2853 2855 2856 2859 2861 2863 2864 2866 2868 2869 2871 2874 2875 2877 2879 2881 2884 2886 2888 2890 2891 2893 2895 2896 2898 2901 2904 2907 2911 2915 2918 2922 2925 2929 2933 2937 2941 2944 2949 2953 2958
2822 2821 2821 2821 2821 2822 2824 2825 2826 2827 2829 2830 2831 2833 2835 2837 2838 2840 2842 2844 2845 2847 2849 2850 2852 2855 2857 2858 2860 2862 2864 2866 2868 2870 2871 2873 2875 2878 2881 2882 2884 2886 2887 2888 2890 2892 2893 2895 2898 2901 2905 2909 2912 2915 2919 2922 2926 2929 2933 2937 2941 2946 2951
2825 2824 2822 2822 2822 2823 2823 2824 2825 2826 2827 2828 2829 2830 2832 2834 2835 2836 2838 2839 2841 2843 2845 2846 2848 2851 2853 2854 2856 2858 2860 2862 2864 2866 2868 2871 2873 2875 2877 2878 2880 2881 2883 2884 2886 2888 2889 2890 2893 2896 2898 2902 2906 2909 2912 2915 2919 2923 2926 2931 2935 2940 2944
2828 2826 2825 2824 2824 2824 2824 2824 2824 2825 2826 2826 2827 2829 2830 2831 2832 2833 2834 2836 2838 2839 2841 2843 2845 2847 2849 2850 2852 2854 2856 2858 2861 2863 2865 2867 2870 2872 2873 2874 2876 2878 2879 2880 2882 2884 2885 2887 2888 2890 2892 2895 2899 2902 2906 2910 2914 2917 2921 2925 2929 2933 2936
2831 2829 2827 2826 2826 2825 2825 2825 2824 2825 2825 2825 2826 2827 2828 2829 2830 2831 2832 2833 2835 2836 2838 2839 2841 2843 2845 2846 2848 2850 2852 2854 2857 2860 2862 2864 2866 2867 2869 2870 2872 2874 2876 2877 2878 2880 2882 2882 2883 2885 2887 2889 2892 2897 2903 2907 2909 2911 2915 2918 2922 2925 2929
2834 2832 2830 2829 2828 2827 2826 2826 2825 2825 2825 2825 2825 2826 2826 2827 2828 2829 2830 2831 2832 2833 2835 2836 2838 2839 2841 2842 2844 2846 2848 2851 2854 2856 2858 2860 2862 2864 2865 2866 2869 2870 2872 2873 2874 2876 2878 2878 2879 2881 2883 2885 2889 2894 2897 2900 2903 2906 2909 2912 2915 2918 2923
2835 2834 2832 2831 2829 2828 2827 2827 2826 2825 2825 2825 2825 2825 2825 2826 2826 2827 2828 2829 2830 2831 2832 2833 2834 2835 2837 2838 2841 2843 2845 2848 2850 2853 2855 2857 2859 2860 2861 2863 2865 2866 2868 2870 2871 2873 2875 2875 2876 2878 2880 2882 2885 2888 2890 2893 2897 2900 2903 2906 2909 2913 2917
2837 2835 2834 2832 2831 2829 2828 2827 2826 2825 2825 2824 2824 2824 2824 2824 2825 2825 2826 2827 2827 2828 2829 2830 2831 2832 2833 2835 2837 2840 2842 2845 2847 2850 2852 2854 2855 2857 2858 2859 2861 2863 2865 2867 2868 2870 2872 2872 2873 2875 2877 2879 2881 2883 2885 2888 2891 2894 2897 2901 2904 2908 2912
2838 2837 2835 2833 2832 2830 2829 2828 2827 2826 2825 2824 2823 2823 2822 2823 2823 2823 2824 2824 2825 2825 2826 2826 2827 2828 2830 2832 2835 2837 2840 2843 2845 2847 2849 2851 2852 2853 2855 2856 2858 2859 2861 2863 2865 2866 2868 2869 2870 2872 2874 2876 2878 2879 2880 2883 2885 2889 2892 2895 2899 2904 2907
2839 2837 2835 2833 2832 2830 2829 2828 2827 2826 2825 2824 2823 2823 2822 2822 2821 2821 2822 2821 2821 2822 2822 2823 2824 2825 2827 2829 2831 2834 2837 2840 2843 2844 2846 2847 2848 2850 2851 2853 2855 2856 2858 2860 2861 2862 2864 2866 2867 2868 2870 2872 2874 2874 2876 2878 2880 2884 2887 2891 2895 2898 2901
2839 2836 2834 2832 2831 2830 2828 2827 2826 2825 2825 2824 2823 2822 2821 2821 2820 2820 2820 2819 2819 2819 2819 2820 2820 2822 2824 2826 2828 2831 2834 2837 2840 2841 2843 2844 2845 2847 2848 2850 2851 2853 2855 2856 2858 2859 2861 2863 2864 2866 2867 2868 2869 2871 2872 2874 2876 2879 2882 2885 2888 2891 2893
2837 2835 2833 2831 2829 2828 2827 2826 2825 2824 2823 2823 2822 2821 2821 2820 2819 2819 2819 2818 2817 2816 2816 2816 2817 2818 2820 2823 2826 2829 2831 2834 2837 2838 2840 2841 2842 2844 2845 2847 2848 2850 2851 2852 2854 2855 2857 2859 2861 2862 2863 2864 2866 2868 2869 2870 2872 2874 2877 2879 2881 2884 2888
2836 2833 2831 2829 2828 2826 2825 2824 2823 2822 2821 2821 2820 2820 2819 2819 2818 2818 2818 2817 2816 2814 2814 2814 2814 2815 2817 2820 2823 2827 2830 2832 2834 2835 2837 2838 2840 2841 2842 2844 2846 2847 2848 2849 2850 2851 2853 2855 2857 2858 2859 2861 2863 2864 2865 2866 2868 2870 2873 2875 2877 2879 2883
2835 2832 2829 2827 2826 2824 2823 2822 2821 2820 2819 2819 2818 2818 2818 2818 2817 2817 2817 2816 2815 2813 2812 2812 2813 2813 2815 2818 2822 2825 2827 2829 2831 2832 2834 2836 2837 2838 2839 2841 2843 2844 2844 2845 2846 2847 2849 2851 2852 2854 2855 2857 2858 2860 2862 2863 2864 2867 2869 2871 2873 2876 2879
2834 2831 2828 2826 2824 2822 2821 2820 2819 2818 2817 2817 2817 2816 2816 2816 2816 2816 2816 2815 2814 2813 2812 2812 2812 2812 2814 2817 2820 2823 2824 2826 2828 2829 2831 2833 2834 2835 2837 2839 2840 2840 2841 2841 2842 2844 2845 2847 2849 2850 2851 2852 2854 2856 2858 2859 2861 2863 2865 2867 2870 2872 2874
2832 2830 2827 2825 2823 2821 2819 2818 2817 2816 2815 2815 2814 2814 2814 2815 2815 2815 2815 2814 2814 2813 2812 2812 2812 2812 2814 2816 2818 2820 2822 2824 2825 2827 2828 2830 2831 2832 2834 2836 2837 2837 2838 2839 2840 2841 2842 2844 2845 2846 2847 2848 2850 2852 2854 2856 2858 2859 2861 2864 2866 2867 2869
2831 2829 2826 2824 2821 2819 2817 2816 2815 2814 2813 2813 2812 2812 2812 2813 2814 2814 2813 2813 2813 2813 2812 2812 2812 2813 2814 2815 2817 2819 2820 2822 2823 2824 2826 2827 2828 2830 2832 2833 2834 2834 2835 2836 2837 2838 2839 2840 2841 2842 2843 2845 2846 2848 2850 2853 2854 2856 2859 2861 2862 2864 2867
2830 2828 2826 2823 2821 2819 2816 2814 2813 2812 2811 2811 2811 2811 2811 2811 2812 2812 2812 2812 2812 2812 2812 2812 2813 2813 2814 2815 2816 2817 2819 2820 2821 2822 2823 2825 2827 2828 2830 2830 2831 2832 2833 2833 2834 2835 2835 2837 2838 2839 2840 2841 2843 2845 2847 2849 2851 2853 2856 2858 2860 2862 2864
2830 2828 2826 2823 2821 2819 2816 2813 2811 2810 2810 2809 2809 2809 2809 2810 2810 2810 2811 2811 2811 2811 2811 2812 2812 2813 2813 2814 2815 2816 2817 2818 2819 2820 2821 2823 2824 2826 2827 2828 2828 2829 2830 2831 2831 2832 2833 2834 2835 2836 2837 2838 2840 2842 2844 2846 2848 2850 2852 2854 2857 2859 2861
2830 2828 2825 2823 2821 2818 2816 2813 2811 2810 2809 2808 2808 2808 2808 2808 2809 2809 2809 2810 2810 2810 2810 2810 2811 2811 2812 2813 2813 2814 2815 2816 2817 2818 2819 2820 2822 2823 2824 2825 2825 2826 2827 2828 2828 2829 2830 2831 2832 2833 2834 2835 2837 2839 2841 2843 2845 2847 2849 2851 2854 2856 2858
2830 2827 2825 2822 2820 2818 2816 2814 2812 2810 2809 2808 2808 2807 2807 2807 2808 2808 2808 2808 2808 2809 2809 2809 2809 2810 2810 2811 2811 2812 2813 2813 2814 2815 2816 2817 2818 2819 2820 2821 2822 2822 2823 2824 2825 2827 2828 2829 2830 2831 2832 2833 2834 2836 2838 2840 2842 2844 2846 2848 2850 2853 2854
2830 2827 2824 2822 2820 2818 2816 2814 2813 2811 2810 2808 2808 2807 2807 2807 2806 2806 2807 2807 2807 2807 2807 2807 2807 2808 2808 2809 2809 2810 2810 2811 2812 2812 2813 2814 2815 2816 2817 2818 2818 2819 2820 2821 2823 2824 2825 2826 2827 2828 2829 2830 2832 2833 2835 2837 2839 2841 2843 2845 2847 2849 2851
2829 2826 2824 2821 2819 2817 2816 2814 2813 2812 2810 2809 2808 2807 2806 2806 2805 2805 2805 2805 2805 2805 2805 2805 2805 2805 2805 2805 2806 2806 2807 2808 2808 2809 2810 2811 2811 2812 2813 2814 2815 2816 2817 2819 2820 2822 2823 2824 2824 2825 2827 2828 2830 2831 2832 2834 2836 2838 2840 2842 2844 2846 2847
2829 2826 2823 2820 2819 2817 2816 2814 2813 2812 2810 2809 2808 2807 2806 2805 2804 2804 2804 2804 2804 2803 2803 2803 2803 2803 2802 2802 2802 2803 2803 2804 2804 2805 2805 2806 2807 2808 2809 2811 2812 2813 2814 2816 2818 2819 2820 2821 2822 2824 2825 2826 2827 2829 2830 2832 2834 2835 2837 2839 2841 2843 2844
2827 2825 2822 2820 2818 2816 2815 2814 2812 2811 2809 2808 2807 2806 2805 2804 2804 2803 2803 2802 2802 2801 2801 2801 2800 2800 2800 2799 2799 2799 2799 2799 2800 2800 2801 2801 2802 2803 2804 2806 2807 2809 2810 2812 2814 2816 2817 2818 2820 2821 2822 2823 2825 2826 2828 2829 2831 2833 2835 2837 2838 2840 2842
2825 2823 2822 2820 2818 2816 2814 2813 2812 2810 2809 2808 2807 2806 2805 2804 2803 2802 2802 2801 2800 2800 2800 2799 2798 2798 2797 2797 2796 2796 2796 2796 2796 2796 2796 2797 2798 2799 2799 2801 2802 2804 2806 2808 2810 2812 2814 2816 2818 2819 2820 2821 2822 2824 2825 2827 2828 2830 2832 2834 2836 2837 2839
2824 2822 2820 2818 2817 2815 2814 2813 2811 2810 2809 2807 2806 2805 2804 2803 2802 2802 2801 2800 2800 2799 2798 2797 2797 2796 2795 2794 2794 2793 2793 2793 2793 2793 2793 2793 2794 2795 2795 2797 2798 2800 2802 2804 2806 2809 2811 2813 2815 2816 2818 2819 2820 2822 2823 2824 2826 2828 2829 2831 2833 2835 2836
2823 2821 2819 2817 2815 2814 2813 2812 2810 2809 2808 2806 2805 2804 2803 2802 2802 2801 2800 2799 2798 2798 2797 2796 2795 2794 2793 2792 2792 2791 2790 2790 2790 2790 2790 2790 2791 2791 2792 2793 2795 2796 2798 2801 2803 2805 2808 2810 2812 2814 2816 2817 2818 2819 2821 2822 2824 2825 2827 2829 2831 2832 2834
2822 2819 2817 2815 2814 2812 2811 2810 2808 2807 2806 2805 2804 2803 2802 2801 2800 2800 2799 2798 2797 2796 2795 2794 2793 2792 2791 2790 2790 2789 2788 2788 2788 2787 2788 2788 2788 2789 2789 2790 2791 2793 2795 2797 2800 2802 2805 2807 2809 2811 2813 2815 2816 2817 2819 2820 2822 2823 2825 2827 2828 2830 2831
2819 2817 2815 2813 2811 2810 2808 2807 2806 2805 2804 2804 2803 2801 2800 2800 2799 2798 2798 2797 2796 2795 2794 2793 2792 2791 2790 2789 2788 2788 2787 2787 2786 2786 2786 2786 2786 2787 2787 2788 2789 2790 2792 2794 2797 2800 2802 2804 2806 2808 2810 2812 2814 2815 2817 2818 2819 2821 2822 2824 2826 2827 2828
2817 2815 2813 2811 2809 2807 2806 2805 2804 2803 2802 2802 2801 2800 2799 2798 2798 2797 2796 2795 2795 2794 2793 2792 2791 2790 2789 2788 2787 2787 2786 2786 2785 2785 2785 2785 2785 2785 2786 2787 2788 2789 2790 2792 2794 2796 2799 2801 2803 2805 2807 2809 2811 2812 2814 2815 2817 2819 2820 2822 2823 2825 2825
2815 2812 2810 2808 2806 2805 2804 2803 2802 2801 2800 2800 2799 2798 2797 2797 2796 2796 2795 2794 2794 2793 2792 2791 2790 2789 2788 2787 2787 2786 2786 2785 2785 2785 2784 2784 2784 2784 2784 2785 2786 2787 2788 2790 2791 2793 2795 2798 2800 2802 2804 2806 2807 2809 2811 2812 2814 2816 2818 2820 2821 2822 2822